Location: Brno
(49.2000°N, 16.6330°E)
Time: 18:45:45
(UTC+02:00)

Transit 4A - Pass Details

Date: 01 August 2021
Orbit: 871 x 974 km, 66.8° (Epoch: 16 September)

Event Time Altitude Azimuth Distance (km) Brightness Sun altitude
Rises 07:43:05 0° 324° (NW) 3,470 10.6 20.5°
Reaches altitude 10° 07:45:52 10° 335° (NNW) 2,533 10.0 20.9°
Maximum altitude 07:51:01 31° 37° (NE) 1,499 9.8 21.8°
Drops below altitude 10° 07:56:14 10° 99° (E) 2,561 12.1 22.6°
Sets 07:59:03 0° 109° (ESE) 3,514 12.1 23.1°
